Home > Weather > Bengaluru > Past weeks

Flag for India Past Weather in Bengaluru, Karnataka, India — Yesterday and Last 2 Weeks

Now
68 °F

Partly cloudy.


Feels Like: 68 °F
Forecast: 67 / 79 °F
Wind: 6 mph from West

Location: Bangalore / Hindustan

Current Time: Jul 30, 2016 at 10:32:53 PM

Latest Report: Jul 30, 2016 at 9:30 PM


Visibility: 4 mi

Pressure: 29.92 "Hg (27.02 "Hg at 876m altitude)

Humidity: 94%

Dew Point: 66 °F

Location of BengaluruLocation

Past Weather in Bengaluru — Graph

°F

Bengaluru Temperature Yesterday

Maximum temperature yesterday: 75 °F (at 4:00 PM)
Minimum temperature yesterday: 68 °F (at 6:30 AM)
Average temperature yesterday: 71 °F

High & Low Weather Summary for the Past Weeks

 TemperatureHumidityPressure
High86 °F (Jul 25, 3:00 PM)100% (Jul 26, 6:00 AM)30.01 "Hg (Jul 26, 6:00 AM)
Low68 °F (Jul 19, 6:30 AM)51% (Jul 19, 2:00 PM)29.74 "Hg (Jul 25, 5:00 PM)
Average75 °F76%29.88 "Hg
* Reported Jul 15 8:30 PM — Jul 30 8:30 PM, Bengaluru, Weather by CustomWeather, © 2016

Note: Actual official high and low records may vary slightly from our data, if they occured in-between our weather recording intervals... More about our weather records

Advertising

Bengaluru Weather History for the Previous 24 Hours

Scroll right to see more
 ConditionsComfort  
Time TempWeatherWind HumidityBarometerVisibility
8:30 PM
Sat, Jul 30
70 °FLight rain. Mostly cloudy.7 mph94%29.89 "Hg4 mi
7:30 PM70 °FLight rain. Mostly cloudy.7 mph94%29.89 "Hg4 mi
6:30 PM70 °FDrizzle. More clouds than sun.6 mph94%29.86 "Hg4 mi
5:30 PM68 °FMore clouds than sun.7 mph100%29.83 "Hg4 mi
5:00 PM70 °FLight rain. Broken clouds.12 mph94%29.83 "Hg4 mi
4:30 PM70 °FLight rain. Broken clouds.12 mph94%29.83 "Hg4 mi
4:00 PM72 °FBroken clouds.14 mph94%29.83 "HgN/A
3:30 PM70 °FBroken clouds.6 mph94%29.83 "HgN/A
3:00 PM70 °FBroken clouds.5 mph94%29.83 "HgN/A
2:30 PM70 °FDrizzle. Broken clouds.9 mph94%29.86 "Hg5 mi
2:00 PM70 °FRain. Broken clouds.16 mph88%29.86 "Hg2 mi
1:30 PM77 °FBroken clouds.6 mph74%29.86 "Hg5 mi
1:00 PM75 °FDrizzle. Broken clouds.12 mph78%29.86 "Hg4 mi
12:30 PM79 °FBroken clouds.9 mph70%29.89 "HgN/A
12:00 PM77 °FBroken clouds.12 mph74%29.89 "HgN/A
11:30 AM77 °FBroken clouds.12 mph69%29.89 "HgN/A
11:00 AM77 °FScattered clouds.14 mph69%29.89 "HgN/A
10:00 AM77 °FScattered clouds.14 mph69%29.89 "HgN/A
9:30 AM75 °FScattered clouds.14 mph74%29.89 "HgN/A
9:00 AM73 °FScattered clouds.12 mph83%29.89 "HgN/A
8:30 AM72 °FScattered clouds.14 mph88%29.89 "HgN/A
8:00 AM70 °FScattered clouds.14 mph94%29.89 "Hg5 mi
7:30 AM70 °FScattered clouds.10 mph88%29.86 "Hg5 mi
7:00 AM70 °FScattered clouds.12 mph88%29.86 "Hg5 mi
6:30 AM70 °FPassing clouds.9 mph94%29.86 "Hg5 mi
6:00 AM70 °FPassing clouds.7 mph94%29.83 "HgN/A
5:30 AM70 °FPassing clouds.9 mph94%29.83 "HgN/A
11:30 PM
Fri, Jul 29
72 °FPassing clouds.7 mph83%29.89 "HgN/A
10:30 PM72 °FPassing clouds.5 mph88%29.89 "HgN/A
Weather by CustomWeather, © 2016

See weather overviewHow to use our weather pages